This demonstration page uses our WeatherBlox Daily Observations layout. Learn more.

Left ArrowRight Arrow

44.89941, -97.11507

Hourly Observations for June 9, 2016

Temp ( °F °C ) Dew Point ( °F °C ) Humidity (%) Winds ( mph kmh ) Pressure ( in mb ) Visibility ( mi km ) Precip ( " mm )
12:53 am 00:53 Mostly Cloudy 68 20 57 13.9 68 68 ESE 8 13 29.71 1006 10 16 0.00 0.00
1:53 am 01:53 Mostly Cloudy 67 19.4 58 14.4 73 73 ESE 7 11 29.70 1006 10 16 0.00 0.00
2:53 am 02:53 Mostly Clear 66 18.9 58 14.4 75 75 E 6 9 29.69 1005 10 16 0.00 0.00
3:53 am 03:53 Clear 65 18.3 58 14.4 78 78 VRB 3 6 29.68 1005 10 16 0.00 0.00
4:53 am 04:53 Clear 65 18.3 59 15 81 81 SE 6 9 29.67 1005 10 16 0.00 0.00
5:53 am 05:53 Sunny 65 18.3 59 15 81 81 SE 5 7 29.68 1005 10 16 0.00 0.00
6:53 am 06:53 Sunny 66 18.9 60 15.6 81 81 Calm 29.69 1005 10 16 0.00 0.00
7:53 am 07:53 Sunny 72 22.2 63 17.2 73 73 ESE 5 7 29.69 1005 10 16 0.00 0.00
8:53 am 08:53 Sunny 75 23.9 63 17.2 66 66 Calm 29.69 1005 10 16 0.00 0.00
9:53 am 09:53 Sunny 80 26.7 66 18.9 62 62 Calm 29.69 1006 10 16 0.00 0.00
10:53 am 10:53 Sunny 81 27.2 66 18.9 61 61 SE 6 9 29.70 1006 10 16 0.00 0.00
11:53 am 11:53 Sunny 82 27.8 66 18.9 58 58 E 8 13 29.70 1006 10 16 0.00 0.00
12:53 pm 12:53 Sunny 86 30 68 20 55 55 SE 9 15 29.69 1006 10 16 0.00 0.00
1:53 pm 13:53 Sunny 89 31.7 68 20 50 50 VRB 6 9 29.68 1005 10 16 0.00 0.00
2:53 pm 14:53 Sunny 92 33.3 69 20.6 47 47 S 10 17 29.67 1005 10 16 0.00 0.00
3:53 pm 15:53 Mostly Sunny 93 33.9 68 20 44 44 VRB 7 11 29.66 1004 10 16 0.00 0.00
4:53 pm 16:53 Sunny 93 33.9 68 20 44 44 SSW 8 13 29.65 1004 10 16 0.00 0.00
5:53 pm 17:53 Sunny 94 34.4 66 18.9 40 40 SSW 8 13 29.64 1004 10 16 0.00 0.00
6:53 pm 18:53 Sunny 93 33.9 65 18.3 40 40 SSW 6 9 29.63 1003 10 16 0.00 0.00
7:53 pm 19:53 Sunny 91 32.8 66 18.9 44 44 SSW 5 7 29.62 1003 10 16 0.00 0.00
8:53 pm 20:53 Sunny 83 28.3 66 18.9 57 57 SSW 5 7 29.62 1003 10 16 0.00 0.00
9:53 pm 21:53 Clear 82 27.8 64 17.8 55 55 SE 3 6 29.63 1003 10 16 0.00 0.00
10:53 pm 22:53 Clear 81 27.2 64 17.8 57 57 SSE 3 6 29.65 1004 10 16 0.00 0.00
11:53 pm 23:53 Clear 78 25.6 64 17.8 62 62 SSE 3 6 29.66 1004 10 16 0.00 0.00

Powered by AerisWeather